Flag for U.S.A. Weather past 2 weeks in Davenport, Iowa, U.S.A.

Now
69 °F

Sunny.


Feels Like: 69 °F
Forecast: 54 / 71 °F
Wind: 6 mph from Southeast

Location: Davenport Municipal Airport

Current Time: Apr 19, 2015 at 1:17:32 PM

Latest Report: Apr 19, 2015 at 11:52 AM


Visibility: 10 mi

Pressure: 29.64 "Hg

Humidity: 42%

Dew point: 45 °F

Location of DavenportLocation

Historic Weather in Davenport — Graph

°F

Davenport temperature yesterday

Maximum temperature yesterday: 78 °F (at 1:52 PM)
Minimum temperature yesterday: 51 °F (at 5:52 AM)
Average temperature yesterday: 64 °F

Past Weeks' High & Low Weather Summary

 TemperatureHumidityPressure
High78 °F (Apr 17, 3:52 PM)97% (Apr 7, 11:52 PM)30.31 "Hg (Apr 7, 11:52 PM)
Low31 °F (Apr 11, 6:52 AM)16% (Apr 5, 2:52 PM)29.42 "Hg (Apr 9, 4:52 PM)
Average55 °F56%30.00 "Hg
* Reported Apr 4 11:52 AM — Apr 19 11:52 AM, Davenport, Weather by CustomWeather, © 2015

Note: Actual official high and low records may vary slightly from our data, if they occured in-between our weather recording intervals... More about our weather records

Advertising

Davenport weather history for previous 24 hours

 ConditionsComfort  
Time TempWeatherWind HumidityBarometerVisibility
11:52 AM
Sun, Apr 19
69 °FSunny.6 mph42%29.64 "Hg10 mi
10:52 AM66 °FSunny.8 mph49%29.68 "Hg10 mi
9:52 AM61 °FPassing clouds.12 mph54%29.71 "Hg10 mi
8:52 AM59 °FPartly sunny.10 mph56%29.75 "Hg10 mi
7:52 AM56 °FPartly sunny.10 mph62%29.76 "Hg10 mi
6:52 AM52 °FPassing clouds.9 mph66%29.78 "Hg10 mi
5:52 AM48 °FClear.6 mph68%29.80 "Hg10 mi
4:52 AM51 °FPassing clouds.7 mph61%29.80 "Hg10 mi
3:52 AM52 °FPassing clouds.9 mph57%29.81 "Hg10 mi
2:52 AM52 °FPassing clouds.9 mph55%29.83 "Hg10 mi
1:52 AM54 °FClear.14 mph49%29.85 "Hg10 mi
12:52 AM55 °FClear.13 mph49%29.86 "Hg10 mi
11:52 PM
Sat, Apr 18
57 °FClear.15 mph51%29.89 "Hg10 mi
10:52 PM59 °FClear.13 mph56%29.90 "Hg10 mi
9:52 PM63 °FClear.20 mph48%29.91 "Hg10 mi
8:52 PM67 °FPassing clouds.17 mph47%29.90 "Hg10 mi
7:52 PM67 °FSunny.12 mph55%29.89 "Hg10 mi
6:52 PM70 °FSunny.12 mph53%29.89 "Hg10 mi
5:52 PM72 °FPassing clouds.15 mph53%29.90 "Hg10 mi
4:52 PM72 °FSunny.17 mph48%29.92 "Hg10 mi
3:52 PM71 °FScattered clouds.18 mph51%29.93 "Hg10 mi
2:52 PM72 °FBroken clouds.15 mph49%29.94 "Hg10 mi
1:52 PM78 °FPassing clouds.13 mph40%29.96 "Hg10 mi
Weather by CustomWeather, © 2015

See weather overviewHow to use our weather pages